Weather in Basel

Switzerland     47°33′16″N   7°35′25″E
temp.,
°C
wind,
m/s
gust,
m/s
humid.,
%
clouds,
%
prec.,
mm/h
press.,
hPa
HPBL,
m
5 march, fri
fri501:00+6wsw269083 0.3 1020229
04:00+5w259232 0.1 1020213
07:00+5wnw239066 0.3 1021287
10:00+4n2492100 0.3 1021320
13:00+4nnw2481100 0.4 1022522
16:00+6n566978 0.0 1023861
19:00+4ne369089 0.5 1025541
22:00+3ene398195 0.3 1027651
6 march, sat
sat601:00+1e398361 0.3 1028637
04:000e287885 0.0 1027486
07:00−1e247842 0.0 1028249
10:00+2ene26680 0.0 1028703
13:00+6ne35493 0.0 10281024
16:00+7nne24480 0.0 1027802
19:00+3nw00600 0.0 102729
22:00+2ese23580 0.0 1028121
7 march, sun
sun701:00+1e11640 0.0 102844
04:00+2ese116534 0.0 102673
07:00+3ese117058 0.0 102682
10:00+6e126567 0.0 1024262
13:00+9n116371 0.2 1022612
16:00+9e117288 0.4 1020425
19:00+5ese008345 0.4 102122
22:00+5nw118434 0.0 102132
8 march, mon
mon801:00+3nw129148 0.1 102168
04:00+1wnw11859 0.0 102174
07:00+1nw118023 0.0 102195
10:00+3n216971 0.0 1021293
13:00+7n226035 0.0 1020756
16:00+7n326210 0.0 1019824
19:00+3nnw12749 0.0 1020148
22:00+2wnw127714 0.0 1022114
9 march, tue
tue901:00+1wnw117950 0.0 102266
04:000w118099 0.0 102250
07:000w118276 0.0 102344
10:00+4n11630 0.0 1023340
13:00+7n22530 0.0 1022717
16:00+8n22490 0.0 1021675
19:00+4nw11650 0.0 102329
22:00+2w12690 0.0 102536